| time (UTC) | temp F | wind direction | speed MPH | gust MPH | rain 1hr in | rain 24hr in | rain mn in | humidity % | barometer mb |
| 20260904232024 | 58 | 113 | 2.0 | 11.0 | 0.00 | 0.18 | 0.00 | 78 | 1015.2 |
| 20260904231546 | 58 | 150 | 3.0 | 11.0 | 0.00 | 0.18 | 0.00 | 78 | 1015.0 |
| 20260904231024 | 59 | 127 | 4.0 | 12.0 | 0.00 | 0.18 | 0.00 | 81 | 1015.1 |
| 20260904230525 | 59 | 120 | 2.0 | 12.0 | 0.00 | 0.18 | 0.00 | 85 | 1015.0 |
| 20260904230047 | 59 | 0 | 4.0 | 12.0 | 0.00 | 0.18 | 0.00 | 84 | 1014.9 |
| 20260904225525 | 59 | 0 | 3.0 | 11.0 | 0.00 | 0.18 | 0.00 | 84 | 1014.7 |
| 20260904225024 | 59 | 221 | 3.0 | 7.0 | 0.00 | 0.18 | 0.00 | 82 | 1014.6 |
| 20260904224544 | 60 | 121 | 2.0 | 7.0 | 0.00 | 0.18 | 0.00 | 80 | 1014.5 |
| 20260904224025 | 60 | 113 | 1.0 | 6.0 | 0.00 | 0.18 | 0.00 | 80 | 1014.3 |
| 20260904223523 | 61 | 105 | 1.0 | 6.0 | 0.00 | 0.18 | 0.00 | 80 | 1014.2 |
| 20260904223051 | 61 | 109 | 1.0 | 6.0 | 0.00 | 0.18 | 0.00 | 79 | 1014.0 |
| 20260904222527 | 61 | 106 | 2.0 | 6.0 | 0.00 | 0.18 | 0.00 | 78 | 1013.8 |
| 20260904222026 | 62 | 148 | 1.0 | 6.0 | 0.00 | 0.18 | 0.00 | 75 | 1013.8 |
| 20260904221551 | 64 | 0 | 0.0 | 3.0 | 0.00 | 0.18 | 0.00 | 72 | 1013.7 |
| 20260904221024 | 64 | 0 | 1.0 | 3.0 | 0.00 | 0.18 | 0.00 | 68 | 1013.6 |
| 20260904220525 | 64 | 0 | 0.0 | 3.0 | 0.00 | 0.18 | 0.00 | 71 | 1013.7 |
| 20260904220048 | 63 | 121 | 0.0 | 4.0 | 0.00 | 0.18 | 0.00 | 71 | 1013.8 |
| 20260904215523 | 62 | 103 | 1.0 | 4.0 | 0.00 | 0.18 | 0.00 | 74 | 1013.8 |
| 20260904215024 | 62 | 148 | 0.0 | 4.0 | 0.00 | 0.18 | 0.00 | 75 | 1013.7 |
| 20260904214552 | 62 | 123 | 0.0 | 3.0 | 0.00 | 0.18 | 0.00 | 75 | 1013.6 |
| 20260904214024 | 62 | 225 | 0.0 | 3.0 | 0.00 | 0.18 | 0.00 | 73 | 1013.6 |
| 20260904213527 | 63 | 0 | 1.0 | 3.0 | 0.00 | 0.18 | 0.00 | 70 | 1013.5 |
| 20260904213051 | 63 | 117 | 0.0 | 3.0 | 0.00 | 0.18 | 0.00 | 72 | 1013.6 |
| 20260904212525 | 63 | 0 | 0.0 | 4.0 | 0.00 | 0.18 | 0.00 | 74 | 1013.5 |
| 20260904212024 | 63 | 0 | 0.0 | 4.0 | 0.00 | 0.18 | 0.00 | 72 | 1013.6 |
| 20260904211550 | 61 | 0 | 1.0 | 4.0 | 0.00 | 0.18 | 0.00 | 75 | 1013.7 |
| 20260904211026 | 60 | 0 | 0.0 | 2.0 | 0.00 | 0.18 | 0.00 | 77 | 1013.6 |
| 20260904210523 | 60 | 113 | 0.0 | 2.0 | 0.00 | 0.18 | 0.00 | 79 | 1013.6 |
| 20260904210041 | 60 | 72 | 0.0 | 2.0 | 0.00 | 0.18 | 0.00 | 78 | 1013.7 |
| 20260904205523 | 60 | 0 | 0.0 | 1.0 | 0.00 | 0.18 | 0.00 | 80 | 1013.7 |
| 20260904205022 | 60 | 0 | 0.0 | 0.0 | 0.00 | 0.18 | 0.00 | 79 | 1013.8 |
| 20260904204551 | 60 | 0 | 0.0 | 0.0 | 0.00 | 0.18 | 0.00 | 81 | 1013.9 |
| 20260904204026 | 59 | 0 | 0.0 | 0.0 | 0.00 | 0.18 | 0.00 | 80 | 1013.9 |
| 20260904203525 | 59 | 0 | 0.0 | 0.0 | 0.00 | 0.18 | 0.00 | 80 | 1013.9 |
| 20260904203047 | 60 | 0 | 0.0 | 0.0 | 0.00 | 0.18 | 0.00 | 79 | 1013.9 |
| 20260904202527 | 60 | 0 | 0.0 | 1.0 | 0.00 | 0.18 | 0.00 | 78 | 1013.9 |
| 20260904202029 | 60 | 0 | 0.0 | 1.0 | 0.00 | 0.18 | 0.00 | 78 | 1013.9 |
| 20260904201547 | 60 | 0 | 0.0 | 1.0 | 0.00 | 0.18 | 0.00 | 77 | 1013.9 |
| 20260904201023 | 60 | 0 | 0.0 | 1.0 | 0.00 | 0.18 | 0.00 | 78 | 1013.8 |
| 20260904200525 | 60 | 0 | 0.0 | 1.0 | 0.00 | 0.18 | 0.00 | 77 | 1013.9 |
| 20260904200043 | 60 | 0 | 0.0 | 2.0 | 0.00 | 0.18 | 0.00 | 78 | 1013.8 |
| 20260904195524 | 60 | 0 | 0.0 | 6.0 | 0.00 | 0.18 | 0.00 | 79 | 1013.7 |
| 20260904195022 | 60 | 0 | 0.0 | 6.0 | 0.00 | 0.18 | 0.00 | 77 | 1013.8 |
| 20260904194605 | 61 | 115 | 0.0 | 2.0 | 0.00 | 0.18 | 0.00 | 78 | 1013.7 |
| 20260904194026 | 60 | 135 | 0.0 | 3.0 | 0.00 | 0.18 | 0.00 | 81 | 1013.7 |
| 20260904193525 | 60 | 0 | 0.0 | 3.0 | 0.00 | 0.18 | 0.00 | 79 | 1013.7 |
| 20260904193046 | 60 | 0 | 0.0 | 2.0 | 0.00 | 0.18 | 0.00 | 81 | 1013.7 |
| 20260904192524 | 60 | 0 | 0.0 | 1.0 | 0.00 | 0.18 | 0.00 | 81 | 1013.7 |
| 20260904192028 | 60 | 0 | 0.0 | 7.0 | 0.00 | 0.18 | 0.00 | 80 | 1013.6 |
| 20260904191545 | 60 | 0 | 1.0 | 7.0 | 0.00 | 0.18 | 0.00 | 80 | 1013.6 |
| 20260904191024 | 61 | 0 | 1.0 | 4.0 | 0.00 | 0.18 | 0.00 | 79 | 1013.6 |
| 20260904190526 | 60 | 0 | 0.0 | 3.0 | 0.00 | 0.18 | 0.00 | 78 | 1013.5 |
| 20260904190050 | 60 | 0 | 0.0 | 4.0 | 0.00 | 0.18 | 0.00 | 79 | 1013.5 |
| 20260904185526 | 59 | 116 | 1.0 | 4.0 | 0.00 | 0.18 | 0.00 | 79 | 1013.6 |
| 20260904185025 | 59 | 0 | 1.0 | 4.0 | 0.00 | 0.18 | 0.00 | 79 | 1013.6 |
| 20260904184551 | 59 | 80 | 1.0 | 4.0 | 0.00 | 0.18 | 0.00 | 77 | 1013.6 |
| 20260904184025 | 59 | 0 | 0.0 | 3.0 | 0.00 | 0.18 | 0.00 | 78 | 1013.6 |
| 20260904183526 | 59 | 279 | 0.0 | 5.0 | 0.00 | 0.18 | 0.00 | 81 | 1013.6 |
| 20260904183045 | 58 | 0 | 0.0 | 5.0 | 0.00 | 0.18 | 0.00 | 79 | 1013.6 |
| 20260904182523 | 58 | 0 | 0.0 | 5.0 | 0.00 | 0.18 | 0.00 | 81 | 1013.6 |
| 20260904182027 | 58 | 92 | 0.0 | 4.0 | 0.00 | 0.18 | 0.00 | 81 | 1013.7 |
| 20260904181555 | 57 | 0 | 0.0 | 4.0 | 0.00 | 0.18 | 0.00 | 81 | 1013.7 |
| 20260904181025 | 57 | 61 | 0.0 | 3.0 | 0.00 | 0.18 | 0.00 | 81 | 1013.6 |
| 20260904180528 | 57 | 0 | 0.0 | 4.0 | 0.00 | 0.18 | 0.00 | 82 | 1013.6 |
| 20260904180052 | 56 | 0 | 1.0 | 4.0 | 0.00 | 0.18 | 0.00 | 81 | 1013.6 |
| 20260904175525 | 56 | 87 | 1.0 | 3.0 | 0.00 | 0.18 | 0.00 | 81 | 1013.7 |
| 20260904175025 | 56 | 0 | 0.0 | 3.0 | 0.00 | 0.18 | 0.00 | 82 | 1013.7 |
| 20260904174545 | 57 | 0 | 0.0 | 3.0 | 0.00 | 0.18 | 0.00 | 85 | 1013.7 |
| 20260904174024 | 56 | 0 | 0.0 | 3.0 | 0.00 | 0.18 | 0.00 | 84 | 1013.7 |
| 20260904173523 | 56 | 0 | 0.0 | 2.0 | 0.00 | 0.18 | 0.00 | 87 | 1013.7 |
| 20260904173043 | 56 | 0 | 0.0 | 3.0 | 0.00 | 0.18 | 0.00 | 85 | 1013.6 |
| 20260904172523 | 55 | 0 | 0.0 | 3.0 | 0.00 | 0.18 | 0.00 | 87 | 1013.6 |
| 20260904172027 | 55 | 93 | 0.0 | 4.0 | 0.00 | 0.18 | 0.00 | 88 | 1013.7 |
| 20260904171613 | 55 | 0 | 0.0 | 4.0 | 0.00 | 0.18 | 0.00 | 90 | 1013.6 |
| 20260904171026 | 55 | 0 | 0.0 | 2.0 | 0.00 | 0.18 | 0.00 | 91 | 1013.6 |
| 20260904170525 | 54 | 96 | 0.0 | 3.0 | 0.00 | 0.18 | 0.00 | 90 | 1013.6 |
| 20260904170046 | 54 | 0 | 0.0 | 3.0 | 0.00 | 0.18 | 0.00 | 89 | 1013.7 |
| 20260904165525 | 54 | 0 | 0.0 | 0.0 | 0.00 | 0.18 | 0.00 | 91 | 1013.7 |
| 20260904165026 | 53 | 0 | 0.0 | 0.0 | 0.00 | 0.18 | 0.00 | 90 | 1013.6 |
| 20260904164547 | 53 | 0 | 0.0 | 0.0 | 0.00 | 0.18 | 0.00 | 90 | 1013.7 |
| 20260904164023 | 53 | 0 | 0.0 | 0.0 | 0.00 | 0.18 | 0.00 | 91 | 1013.7 |
| 20260904163523 | 53 | 0 | 0.0 | 0.0 | 0.00 | 0.18 | 0.00 | 90 | 1013.7 |
| 20260904163053 | 53 | 0 | 0.0 | 0.0 | 0.00 | 0.18 | 0.00 | 91 | 1013.6 |
| 20260904162526 | 53 | 0 | 0.0 | 0.0 | 0.00 | 0.18 | 0.00 | 91 | 1013.6 |
| 20260904162025 | 53 | 0 | 0.0 | 0.0 | 0.00 | 0.18 | 0.00 | 94 | 1013.6 |
| 20260904161556 | 52 | 0 | 0.0 | 0.0 | 0.00 | 0.18 | 0.00 | 94 | 1013.7 |
| 20260904161024 | 52 | 0 | 0.0 | 1.0 | 0.00 | 0.18 | 0.00 | 94 | 1013.6 |
| 20260904160523 | 52 | 0 | 0.0 | 1.0 | 0.00 | 0.18 | 0.00 | 95 | 1013.6 |
| 20260904160047 | 52 | 0 | 0.0 | 0.0 | 0.00 | 0.18 | 0.00 | 94 | 1013.6 |
| 20260904155528 | 52 | 0 | 0.0 | 0.0 | 0.00 | 0.19 | 0.00 | 95 | 1013.5 |
| 20260904155028 | 51 | 0 | 0.0 | 0.0 | 0.00 | 0.19 | 0.00 | 94 | 1013.5 |
| 20260904154551 | 51 | 0 | 0.0 | 0.0 | 0.00 | 0.19 | 0.00 | 94 | 1013.5 |
| 20260904154027 | 50 | 0 | 0.0 | 0.0 | 0.00 | 0.19 | 0.00 | 96 | 1013.4 |
| 20260904153527 | 50 | 0 | 0.0 | 0.0 | 0.00 | 0.19 | 0.00 | 96 | 1013.5 |
| 20260904153052 | 50 | 0 | 0.0 | 0.0 | 0.00 | 0.19 | 0.00 | 96 | 1013.4 |
| 20260904152523 | 49 | 0 | 0.0 | 0.0 | 0.00 | 0.19 | 0.00 | 96 | 1013.4 |
| 20260904152022 | 49 | 0 | 0.0 | 0.0 | 0.00 | 0.19 | 0.00 | 96 | 1013.4 |
| 20260904151552 | 49 | 0 | 0.0 | 0.0 | 0.00 | 0.19 | 0.00 | 96 | 1013.4 |
| 20260904151027 | 49 | 0 | 0.0 | 0.0 | 0.00 | 0.19 | 0.00 | 96 | 1013.4 |
| 20260904150526 | 49 | 0 | 0.0 | 0.0 | 0.00 | 0.19 | 0.00 | 96 | 1013.3 |
| 20260904150046 | 49 | 0 | 0.0 | 1.0 | 0.00 | 0.19 | 0.00 | 96 | 1013.3 |
| 20260904145526 | 49 | 0 | 0.0 | 2.0 | 0.00 | 0.19 | 0.00 | 96 | 1013.3 |
| 20260904145029 | 49 | 0 | 0.0 | 2.0 | 0.00 | 0.19 | 0.00 | 96 | 1013.2 |
| 20260904144545 | 49 | 0 | 0.0 | 1.0 | 0.00 | 0.19 | 0.00 | 96 | 1013.1 |
| 20260904144027 | 49 | 0 | 0.0 | 1.0 | 0.00 | 0.19 | 0.00 | 97 | 1013.1 |
| 20260904143524 | 48 | 0 | 0.0 | 0.0 | 0.00 | 0.19 | 0.00 | 96 | 1013.0 |
| 20260904143057 | 48 | 0 | 0.0 | 0.0 | 0.00 | 0.19 | 0.00 | 96 | 1013.0 |
| 20260904142523 | 48 | 0 | 0.0 | 0.0 | 0.00 | 0.19 | 0.00 | 96 | 1012.8 |
| 20260904142023 | 48 | 0 | 0.0 | 0.0 | 0.00 | 0.19 | 0.00 | 97 | 1012.8 |
| 20260904141547 | 48 | 0 | 0.0 | 0.0 | 0.00 | 0.19 | 0.00 | 97 | 1012.8 |
| 20260904141023 | 48 | 0 | 0.0 | 0.0 | 0.00 | 0.19 | 0.00 | 97 | 1012.7 |
| 20260904140524 | 48 | 0 | 0.0 | 0.0 | 0.00 | 0.19 | 0.00 | 97 | 1012.6 |
| 20260904140046 | 48 | 0 | 0.0 | 1.0 | 0.00 | 0.19 | 0.00 | 96 | 1012.6 |
| 20260904135531 | 48 | 0 | 0.0 | 1.0 | 0.00 | 0.20 | 0.00 | 96 | 1012.5 |
| 20260904135029 | 48 | 0 | 0.0 | 1.0 | 0.00 | 0.20 | 0.00 | 96 | 1012.5 |
| 20260904134550 | 48 | 0 | 0.0 | 0.0 | 0.00 | 0.20 | 0.00 | 96 | 1012.5 |
| 20260904134025 | 48 | 0 | 0.0 | 0.0 | 0.00 | 0.20 | 0.00 | 97 | 1012.5 |
| 20260904133523 | 48 | 0 | 0.0 | 0.0 | 0.00 | 0.20 | 0.00 | 96 | 1012.4 |
| 20260904133058 | 48 | 0 | 0.0 | 0.0 | 0.00 | 0.20 | 0.00 | 96 | 1012.4 |
| 20260904132526 | 48 | 0 | 0.0 | 0.0 | 0.00 | 0.20 | 0.00 | 96 | 1012.3 |
| 20260904132023 | 48 | 0 | 0.0 | 1.0 | 0.00 | 0.20 | 0.00 | 96 | 1012.3 |
| 20260904131544 | 48 | 0 | 0.0 | 1.0 | 0.00 | 0.20 | 0.00 | 96 | 1012.3 |
| 20260904131024 | 48 | 0 | 0.0 | 0.0 | 0.00 | 0.20 | 0.00 | 96 | 1012.2 |
| 20260904130552 | 48 | 0 | 0.0 | 0.0 | 0.00 | 0.20 | 0.00 | 96 | 1012.1 |
| 20260904130045 | 48 | 0 | 0.0 | 0.0 | 0.00 | 0.20 | 0.00 | 96 | 1012.2 |
| 20260904125524 | 48 | 0 | 0.0 | 0.0 | 0.00 | 0.20 | 0.00 | 96 | 1012.1 |
| 20260904125026 | 48 | 0 | 0.0 | 0.0 | 0.00 | 0.20 | 0.00 | 96 | 1012.1 |
| 20260904124546 | 48 | 0 | 0.0 | 0.0 | 0.00 | 0.20 | 0.00 | 96 | 1012.1 |
| 20260904124028 | 48 | 0 | 0.0 | 0.0 | 0.00 | 0.20 | 0.00 | 96 | 1012.1 |
| 20260904123525 | 48 | 0 | 0.0 | 1.0 | 0.00 | 0.20 | 0.00 | 96 | 1012.0 |
| 20260904123047 | 48 | 0 | 0.0 | 1.0 | 0.00 | 0.20 | 0.00 | 96 | 1012.0 |
| 20260904122525 | 48 | 0 | 0.0 | 1.0 | 0.00 | 0.20 | 0.00 | 96 | 1012.1 |
| 20260904122022 | 48 | 0 | 0.0 | 0.0 | 0.00 | 0.20 | 0.00 | 96 | 1012.0 |
| 20260904121544 | 48 | 0 | 0.0 | 0.0 | 0.00 | 0.20 | 0.00 | 96 | 1012.0 |
| 20260904121025 | 48 | 0 | 0.0 | 0.0 | 0.00 | 0.20 | 0.00 | 96 | 1011.9 |
| 20260904120525 | 48 | 0 | 0.0 | 0.0 | 0.00 | 0.20 | 0.00 | 96 | 1011.9 |
| 20260904120055 | 48 | 0 | 0.0 | 0.0 | 0.00 | 0.20 | 0.00 | 96 | 1011.8 |
| 20260904115524 | 48 | 0 | 0.0 | 0.0 | 0.00 | 0.21 | 0.00 | 96 | 1011.9 |
| 20260904115024 | 48 | 0 | 0.0 | 0.0 | 0.00 | 0.21 | 0.00 | 96 | 1011.8 |
| 20260904114559 | 48 | 0 | 0.0 | 0.0 | 0.00 | 0.21 | 0.00 | 96 | 1011.8 |
| 20260904114026 | 48 | 0 | 0.0 | 0.0 | 0.00 | 0.21 | 0.00 | 96 | 1011.7 |
| 20260904113525 | 48 | 0 | 0.0 | 0.0 | 0.00 | 0.21 | 0.00 | 96 | 1011.6 |
| 20260904113047 | 48 | 0 | 0.0 | 2.0 | 0.00 | 0.21 | 0.00 | 96 | 1011.5 |
| 20260904112526 | 48 | 0 | 0.0 | 2.0 | 0.00 | 0.21 | 0.00 | 96 | 1011.5 |
| 20260904112021 | 48 | 0 | 0.0 | 2.0 | 0.00 | 0.21 | 0.00 | 96 | 1011.4 |
| 20260904111546 | 48 | 0 | 0.0 | 0.0 | 0.00 | 0.21 | 0.00 | 96 | 1011.4 |
| 20260904111024 | 48 | 0 | 0.0 | 0.0 | 0.00 | 0.21 | 0.00 | 96 | 1011.4 |
| 20260904110526 | 48 | 0 | 0.0 | 0.0 | 0.00 | 0.21 | 0.00 | 96 | 1011.5 |
| 20260904110046 | 48 | 0 | 0.0 | 0.0 | 0.00 | 0.21 | 0.00 | 96 | 1011.4 |
| 20260904105526 | 49 | 0 | 0.0 | 0.0 | 0.00 | 0.21 | 0.00 | 96 | 1011.5 |
| 20260904105028 | 49 | 0 | 0.0 | 0.0 | 0.00 | 0.21 | 0.00 | 96 | 1011.5 |
| 20260904104609 | 49 | 0 | 0.0 | 0.0 | 0.00 | 0.21 | 0.00 | 96 | 1011.4 |
| 20260904104025 | 49 | 0 | 0.0 | 0.0 | 0.00 | 0.21 | 0.00 | 96 | 1011.4 |
| 20260904103523 | 49 | 0 | 0.0 | 0.0 | 0.00 | 0.21 | 0.00 | 96 | 1011.3 |
| 20260904103047 | 49 | 0 | 0.0 | 0.0 | 0.00 | 0.21 | 0.00 | 96 | 1011.3 |
| 20260904102526 | 49 | 0 | 0.0 | 0.0 | 0.00 | 0.21 | 0.00 | 96 | 1011.3 |
| 20260904102025 | 49 | 0 | 0.0 | 0.0 | 0.00 | 0.21 | 0.00 | 96 | 1011.3 |
| 20260904101545 | 49 | 0 | 0.0 | 0.0 | 0.00 | 0.21 | 0.00 | 96 | 1011.3 |
| 20260904101024 | 49 | 0 | 0.0 | 1.0 | 0.00 | 0.21 | 0.00 | 96 | 1011.3 |
| 20260904100524 | 49 | 0 | 0.0 | 1.0 | 0.00 | 0.21 | 0.00 | 96 | 1011.3 |
| 20260904100100 | 49 | 0 | 0.0 | 0.0 | 0.00 | 0.21 | 0.00 | 96 | 1011.2 |
| 20260904095523 | 49 | 0 | 0.0 | 0.0 | 0.00 | 0.21 | 0.00 | 96 | 1011.3 |
| 20260904095024 | 49 | 0 | 0.0 | 0.0 | 0.00 | 0.21 | 0.00 | 96 | 1011.2 |
| 20260904094558 | 49 | 0 | 0.0 | 0.0 | 0.00 | 0.21 | 0.00 | 96 | 1011.3 |
| 20260904094023 | 49 | 0 | 0.0 | 0.0 | 0.00 | 0.21 | 0.00 | 96 | 1011.3 |
| 20260904093530 | 49 | 0 | 0.0 | 0.0 | 0.00 | 0.21 | 0.00 | 96 | 1011.3 |
| 20260904093047 | 49 | 0 | 0.0 | 0.0 | 0.00 | 0.21 | 0.00 | 96 | 1011.3 |
| 20260904092524 | 49 | 0 | 0.0 | 0.0 | 0.00 | 0.21 | 0.00 | 96 | 1011.2 |
| 20260904092024 | 49 | 0 | 0.0 | 0.0 | 0.00 | 0.21 | 0.00 | 96 | 1011.3 |
| 20260904091543 | 49 | 0 | 0.0 | 1.0 | 0.00 | 0.21 | 0.00 | 96 | 1011.4 |
| 20260904091025 | 49 | 0 | 0.0 | 1.0 | 0.00 | 0.21 | 0.00 | 96 | 1011.4 |
| 20260904090530 | 49 | 278 | 0.0 | 1.0 | 0.00 | 0.21 | 0.00 | 96 | 1011.4 |
| 20260904090047 | 49 | 0 | 0.0 | 0.0 | 0.00 | 0.21 | 0.00 | 96 | 1011.4 |
| 20260904085523 | 49 | 0 | 0.0 | 0.0 | 0.00 | 0.21 | 0.00 | 96 | 1011.4 |
| 20260904085029 | 49 | 0 | 0.0 | 0.0 | 0.00 | 0.21 | 0.00 | 96 | 1011.3 |
| 20260904084547 | 49 | 0 | 0.0 | 0.0 | 0.00 | 0.21 | 0.00 | 96 | 1011.4 |
| 20260904084025 | 49 | 0 | 0.0 | 0.0 | 0.00 | 0.21 | 0.00 | 96 | 1011.4 |
| 20260904083529 | 49 | 0 | 0.0 | 0.0 | 0.00 | 0.21 | 0.00 | 96 | 1011.4 |
| 20260904083047 | 49 | 0 | 0.0 | 0.0 | 0.00 | 0.21 | 0.00 | 96 | 1011.5 |
| 20260904082525 | 49 | 0 | 0.0 | 0.0 | 0.00 | 0.21 | 0.00 | 96 | 1011.4 |
| 20260904082024 | 49 | 0 | 0.0 | 0.0 | 0.00 | 0.21 | 0.00 | 96 | 1011.5 |
| 20260904081550 | 49 | 0 | 0.0 | 0.0 | 0.00 | 0.21 | 0.00 | 96 | 1011.4 |
| 20260904081024 | 49 | 0 | 0.0 | 0.0 | 0.00 | 0.21 | 0.00 | 96 | 1011.5 |
| 20260904080523 | 50 | 0 | 0.0 | 0.0 | 0.00 | 0.21 | 0.00 | 96 | 1011.6 |
| 20260904080048 | 50 | 0 | 0.0 | 0.0 | 0.00 | 0.21 | 0.00 | 96 | 1011.6 |
| 20260904075526 | 50 | 0 | 0.0 | 0.0 | 0.00 | 0.21 | 0.00 | 96 | 1011.6 |
| 20260904075025 | 50 | 0 | 0.0 | 0.0 | 0.00 | 0.21 | 0.00 | 96 | 1011.6 |
| 20260904074551 | 50 | 0 | 0.0 | 0.0 | 0.00 | 0.21 | 0.00 | 96 | 1011.8 |
| 20260904074027 | 50 | 0 | 0.0 | 0.0 | 0.00 | 0.21 | 0.00 | 96 | 1011.6 |
| 20260904073525 | 50 | 0 | 0.0 | 0.0 | 0.00 | 0.21 | 0.00 | 96 | 1011.5 |
| 20260904073044 | 50 | 0 | 0.0 | 0.0 | 0.00 | 0.21 | 0.00 | 96 | 1011.3 |
| 20260904072524 | 49 | 0 | 0.0 | 1.0 | 0.00 | 0.21 | 0.00 | 96 | 1011.1 |
| 20260904072023 | 49 | 0 | 0.0 | 1.0 | 0.00 | 0.21 | 0.00 | 96 | 1011.0 |
| 20260904071543 | 50 | 0 | 0.0 | 0.0 | 0.00 | 0.21 | 0.00 | 96 | 1011.0 |
| 20260904071024 | 50 | 0 | 0.0 | 0.0 | 0.00 | 0.21 | 0.00 | 96 | 1011.1 |
| 20260904070523 | 50 | 0 | 0.0 | 1.0 | 0.00 | 0.21 | 0.00 | 96 | 1011.3 |
| 20260904070052 | 50 | 0 | 0.0 | 1.0 | 0.00 | 0.21 | 0.00 | 96 | 1011.4 |
| 20260904065531 | 50 | 0 | 0.0 | 2.0 | 0.00 | 0.21 | 0.21 | 96 | 1011.5 |
| 20260904065022 | 50 | 0 | 0.0 | 2.0 | 0.00 | 0.21 | 0.21 | 96 | 1011.6 |
| 20260904064551 | 50 | 0 | 0.0 | 0.0 | 0.01 | 0.21 | 0.21 | 96 | 1011.6 |
| 20260904064029 | 50 | 0 | 0.0 | 0.0 | 0.01 | 0.21 | 0.21 | 96 | 1011.7 |
| 20260904063524 | 50 | 0 | 0.0 | 0.0 | 0.01 | 0.21 | 0.21 | 96 | 1011.7 |
| 20260904063050 | 50 | 0 | 0.0 | 0.0 | 0.01 | 0.21 | 0.21 | 96 | 1011.8 |
| 20260904062528 | 50 | 0 | 0.0 | 0.0 | 0.01 | 0.21 | 0.21 | 96 | 1011.8 |
| 20260904062030 | 50 | 0 | 0.0 | 0.0 | 0.01 | 0.21 | 0.21 | 96 | 1011.6 |
| 20260904061550 | 50 | 0 | 0.0 | 0.0 | 0.01 | 0.21 | 0.21 | 96 | 1011.6 |
| 20260904061027 | 50 | 0 | 0.0 | 0.0 | 0.01 | 0.21 | 0.21 | 96 | 1011.6 |
| 20260904060524 | 50 | 0 | 0.0 | 2.0 | 0.01 | 0.21 | 0.21 | 96 | 1011.6 |
| 20260904060112 | 50 | 0 | 0.0 | 2.0 | 0.02 | 0.21 | 0.21 | 96 | 1011.5 |
| 20260904055525 | 50 | 0 | 0.0 | 0.0 | 0.02 | 0.21 | 0.21 | 96 | 1011.6 |
| 20260904055024 | 50 | 0 | 0.0 | 0.0 | 0.02 | 0.21 | 0.21 | 96 | 1011.6 |
| 20260904054546 | 50 | 0 | 0.0 | 0.0 | 0.01 | 0.20 | 0.20 | 96 | 1011.6 |
| 20260904054024 | 50 | 0 | 0.0 | 0.0 | 0.01 | 0.20 | 0.20 | 96 | 1011.5 |
| 20260904053527 | 50 | 0 | 0.0 | 0.0 | 0.01 | 0.20 | 0.20 | 96 | 1011.5 |
| 20260904053135 | 50 | 0 | 0.0 | 0.0 | 0.02 | 0.20 | 0.20 | 95 | 1011.5 |
| 20260904052519 | 50 | 0 | 0.0 | 0.0 | 0.02 | 0.20 | 0.20 | 95 | 1011.5 |
| 20260904052023 | 50 | 0 | 0.0 | 1.0 | 0.03 | 0.20 | 0.20 | 95 | 1011.4 |
| 20260904051601 | 50 | 0 | 0.0 | 1.0 | 0.04 | 0.20 | 0.20 | 95 | 1011.5 |
| 20260904051026 | 50 | 0 | 0.0 | 1.0 | 0.05 | 0.20 | 0.20 | 95 | 1011.5 |
| 20260904050525 | 50 | 0 | 0.0 | 1.0 | 0.05 | 0.20 | 0.20 | 95 | 1011.6 |
| 20260904050052 | 50 | 0 | 0.0 | 0.0 | 0.04 | 0.19 | 0.19 | 95 | 1011.6 |
| 20260904045527 | 50 | 0 | 0.0 | 0.0 | 0.04 | 0.19 | 0.19 | 95 | 1011.6 |
| 20260904045024 | 50 | 0 | 0.0 | 0.0 | 0.04 | 0.19 | 0.19 | 95 | 1011.6 |
| 20260904044559 | 50 | 0 | 0.0 | 0.0 | 0.04 | 0.19 | 0.19 | 95 | 1011.6 |
| 20260904044023 | 50 | 0 | 0.0 | 1.0 | 0.04 | 0.19 | 0.19 | 94 | 1011.6 |
| 20260904043523 | 50 | 0 | 0.0 | 1.0 | 0.04 | 0.19 | 0.19 | 94 | 1011.6 |
| 20260904043048 | 50 | 0 | 0.0 | 0.0 | 0.03 | 0.18 | 0.18 | 94 | 1011.6 |
| 20260904042524 | 50 | 0 | 0.0 | 1.0 | 0.02 | 0.17 | 0.17 | 94 | 1011.6 |
| 20260904042025 | 50 | 0 | 0.0 | 3.0 | 0.02 | 0.17 | 0.17 | 93 | 1011.6 |
| 20260904041543 | 50 | 0 | 0.0 | 3.0 | 0.01 | 0.16 | 0.16 | 93 | 1011.7 |
| 20260904041024 | 51 | 0 | 0.0 | 3.0 | 0.00 | 0.15 | 0.15 | 94 | 1011.8 |
| 20260904040523 | 51 | 0 | 0.0 | 3.0 | 0.00 | 0.15 | 0.15 | 94 | 1011.7 |
| 20260904040052 | 51 | 0 | 0.0 | 1.0 | 0.00 | 0.15 | 0.15 | 94 | 1011.8 |
| 20260904035527 | 51 | 0 | 0.0 | 3.0 | 0.00 | 0.15 | 0.15 | 94 | 1011.8 |
| 20260904035028 | 51 | 0 | 0.0 | 3.0 | 0.00 | 0.15 | 0.15 | 94 | 1011.8 |
| 20260904034546 | 51 | 0 | 0.0 | 2.0 | 0.00 | 0.15 | 0.15 | 95 | 1011.6 |
| 20260904034045 | 51 | 0 | 0.0 | 5.0 | 0.00 | 0.15 | 0.15 | 95 | 1011.5 |
| 20260904033525 | 51 | 0 | 0.0 | 5.0 | 0.00 | 0.15 | 0.15 | 95 | 1011.4 |
| 20260904033058 | 51 | 0 | 0.0 | 3.0 | 0.00 | 0.15 | 0.15 | 95 | 1011.4 |
| 20260904032522 | 51 | 0 | 0.0 | 2.0 | 0.00 | 0.15 | 0.15 | 95 | 1011.3 |
| 20260904032022 | 51 | 0 | 0.0 | 1.0 | 0.00 | 0.15 | 0.15 | 95 | 1011.2 |
| 20260904031541 | 51 | 0 | 0.0 | 3.0 | 0.00 | 0.15 | 0.15 | 95 | 1011.2 |
| 20260904031023 | 51 | 84 | 0.0 | 3.0 | 0.00 | 0.15 | 0.15 | 95 | 1011.1 |
| 20260904030524 | 51 | 262 | 0.0 | 1.0 | 0.00 | 0.15 | 0.15 | 95 | 1011.0 |
| 20260904030052 | 51 | 0 | 0.0 | 0.0 | 0.00 | 0.15 | 0.15 | 95 | 1011.0 |
| 20260904025524 | 51 | 0 | 0.0 | 0.0 | 0.00 | 0.16 | 0.15 | 95 | 1011.0 |
| 20260904025024 | 51 | 0 | 0.0 | 0.0 | 0.00 | 0.16 | 0.15 | 95 | 1010.9 |
| 20260904024551 | 51 | 0 | 0.0 | 0.0 | 0.00 | 0.16 | 0.15 | 95 | 1011.0 |
| 20260904024024 | 52 | 0 | 0.0 | 0.0 | 0.00 | 0.16 | 0.15 | 94 | 1010.9 |
| 20260904023524 | 52 | 0 | 0.0 | 0.0 | 0.00 | 0.16 | 0.15 | 94 | 1010.9 |
| 20260904023054 | 52 | 0 | 0.0 | 0.0 | 0.00 | 0.16 | 0.15 | 94 | 1011.0 |
| 20260904022524 | 52 | 0 | 0.0 | 0.0 | 0.00 | 0.16 | 0.15 | 94 | 1010.9 |
| 20260904022025 | 52 | 0 | 0.0 | 0.0 | 0.00 | 0.16 | 0.15 | 94 | 1010.8 |
| 20260904021544 | 52 | 0 | 0.0 | 0.0 | 0.00 | 0.16 | 0.15 | 94 | 1010.8 |
| 20260904021022 | 52 | 0 | 0.0 | 0.0 | 0.01 | 0.16 | 0.15 | 94 | 1010.8 |
| 20260904020523 | 52 | 0 | 0.0 | 0.0 | 0.01 | 0.16 | 0.15 | 94 | 1010.7 |
| 20260904020041 | 52 | 0 | 0.0 | 0.0 | 0.01 | 0.16 | 0.15 | 94 | 1010.8 |
| 20260904015522 | 53 | 0 | 0.0 | 1.0 | 0.01 | 0.38 | 0.15 | 94 | 1010.9 |
| 20260904015025 | 53 | 0 | 0.0 | 2.0 | 0.01 | 0.38 | 0.15 | 94 | 1010.8 |
| 20260904014557 | 53 | 0 | 0.0 | 2.0 | 0.01 | 0.38 | 0.15 | 94 | 1010.8 |
| 20260904014024 | 53 | 0 | 0.0 | 3.0 | 0.01 | 0.38 | 0.15 | 94 | 1010.6 |
| 20260904013521 | 53 | 0 | 0.0 | 3.0 | 0.01 | 0.38 | 0.15 | 94 | 1010.6 |
| 20260904013047 | 53 | 0 | 0.0 | 1.0 | 0.01 | 0.38 | 0.15 | 94 | 1010.8 |
| 20260904012525 | 53 | 0 | 0.0 | 1.0 | 0.01 | 0.38 | 0.15 | 94 | 1010.8 |
| 20260904012025 | 53 | 0 | 0.0 | 1.0 | 0.01 | 0.38 | 0.15 | 94 | 1010.7 |
| 20260904011548 | 54 | 0 | 0.0 | 1.0 | 0.02 | 0.38 | 0.15 | 94 | 1010.7 |
| 20260904011022 | 54 | 0 | 0.0 | 1.0 | 0.02 | 0.37 | 0.14 | 95 | 1010.8 |
| 20260904010530 | 54 | 0 | 0.0 | 0.0 | 0.03 | 0.37 | 0.14 | 95 | 1010.8 |
| 20260904010045 | 54 | 0 | 0.0 | 0.0 | 0.04 | 0.37 | 0.14 | 94 | 1010.8 |
| 20260904005528 | 54 | 0 | 0.0 | 0.0 | 0.04 | 0.37 | 0.14 | 95 | 1010.8 |
| 20260904005025 | 54 | 0 | 0.0 | 0.0 | 0.04 | 0.37 | 0.14 | 94 | 1010.8 |
| 20260904004548 | 54 | 0 | 0.0 | 0.0 | 0.06 | 0.37 | 0.14 | 94 | 1010.6 |
| 20260904004024 | 54 | 0 | 0.0 | 0.0 | 0.07 | 0.37 | 0.14 | 94 | 1010.6 |
| 20260904003532 | 54 | 0 | 0.0 | 0.0 | 0.09 | 0.37 | 0.14 | 94 | 1010.7 |
| 20260904003049 | 54 | 0 | 0.0 | 0.0 | 0.11 | 0.37 | 0.14 | 94 | 1010.6 |
| 20260904002523 | 54 | 0 | 0.0 | 0.0 | 0.11 | 0.37 | 0.14 | 94 | 1010.5 |
| 20260904002026 | 54 | 0 | 0.0 | 0.0 | 0.11 | 0.37 | 0.14 | 94 | 1010.6 |
| 20260904001545 | 54 | 0 | 0.0 | 0.0 | 0.10 | 0.36 | 0.13 | 93 | 1010.6 |
| 20260904001027 | 54 | 0 | 0.0 | 0.0 | 0.09 | 0.35 | 0.12 | 93 | 1010.7 |
| 20260904000521 | 54 | 0 | 0.0 | 0.0 | 0.08 | 0.34 | 0.11 | 93 | 1010.8 |
| 20260904000108 | 54 | 0 | 0.0 | 0.0 | 0.07 | 0.33 | 0.10 | 92 | 1010.8 |
| 20260903235526 | 55 | 0 | 0.0 | 0.0 | 0.07 | 0.41 | 0.10 | 92 | 1010.8 |
| 20260903235024 | 55 | 0 | 0.0 | 0.0 | 0.06 | 0.40 | 0.09 | 91 | 1010.7 |
| 20260903234552 | 56 | 0 | 0.0 | 0.0 | 0.05 | 0.39 | 0.08 | 90 | 1010.8 |
| 20260903234023 | 56 | 0 | 0.0 | 0.0 | 0.03 | 0.37 | 0.06 | 87 | 1010.8 |
| 20260903233529 | 57 | 0 | 0.0 | 0.0 | 0.02 | 0.36 | 0.05 | 86 | 1010.8 |
| 20260903233107 | 58 | 0 | 0.0 | 0.0 | 0.00 | 0.34 | 0.03 | 83 | 1010.8 |